Weather History for Grand Canyon, AZ

Change the Weather History Date:

Friday, February 1, 2013

  Actual Average Record
Temperature  
Mean Temperature 34 °F -  
Max Temperature 52 °F 42 °F 61 °F (2003)
Min Temperature 17 °F 14 °F -20 °F (1985)
Degree Days  
Heating Degree Days 30    
Moisture  
Dew Point 17 °F    
Average Humidity 65    
Maximum Humidity 89    
Minimum Humidity 14    
Precipitation  
Precipitation 0.00 in - - ()
Sea Level Pressure  
Sea Level Pressure 30.31 in    
Wind  
Wind Speed 2 mph (NNE)    
Max Wind Speed 8 mph    
Max Gust Speed -    
Visibility 10 miles    
Events      
Averages and records for this station are not official NWS values.
T = Trace of Precipitation, MM = Missing Value Source: NWS Daily Summary

Daily Weather History Graph

Daily Weather History Graph

Search for Another Location

Airport:

Trip Planner

Search our weather history database for the weather conditions in past years. The results will help you decide how hot, cold, wet, or windy it might be!

Date:

Astronomy

Feb. 01, 2013 Rise Set
Actual Time 7:28 AM MST 5:56 PM MST
Civil Twilight 7:01 AM MST 6:23 PM MST
Nautical Twilight 6:31 AM MST 6:53 PM MST
Astronomical Twilight 6:01 AM MST 7:23 PM MST
Moon 11:53 PM MST (2/1) 10:17 AM MST (2/1)
Length of Visible Light 11h 21m
Length of Day
10h 27m
Waning Gibbous, 69% of the Moon is Illuminated
Feb 1
Waning Gibbous
Feb 3
Last Quarter
Feb 10
New
Feb 17
First Quarter
Feb 25
Full

Hourly Weather History & Observations

Time (MST) Temp. Windchill Dew Point Humidity Pressure Visibility Wind Dir Wind Speed Gust Speed Precip Events Conditions
12:54 AM 21.9 °F - 18.0 °F 85% 30.27 in 10.0 mi Calm Calm - N/A   Clear
1:54 AM 19.9 °F - 17.1 °F 89% 30.28 in 10.0 mi Calm Calm - N/A   Clear
2:54 AM 19.9 °F - 16.0 °F 85% 30.27 in 10.0 mi Calm Calm - N/A   Clear
3:54 AM 19.0 °F - 15.1 °F 85% 30.26 in 10.0 mi Calm Calm - N/A   Clear
5:54 AM 19.0 °F 11.1 °F 14.0 °F 81% 30.31 in 10.0 mi ENE 5.8 mph - N/A   Clear
6:54 AM 17.1 °F - 12.9 °F 84% 30.35 in 10.0 mi Calm Calm - N/A   Clear
7:54 AM 18.0 °F 9.8 °F 14.0 °F 84% 30.36 in 10.0 mi ENE 5.8 mph - N/A   Clear
8:54 AM 27.0 °F - 19.9 °F 75% 30.33 in 10.0 mi Calm Calm - N/A   Clear
9:54 AM 37.9 °F - 28.0 °F 68% 30.32 in 10.0 mi Calm Calm - N/A   Clear
10:54 AM 45.0 °F 42.6 °F 21.9 °F 40% 30.29 in 10.0 mi South 4.6 mph - N/A   Clear
11:54 AM 48.9 °F - 18.0 °F 29% 30.26 in 10.0 mi Variable 5.8 mph - N/A   Clear
12:54 PM 48.9 °F - 21.0 °F 33% 30.25 in 10.0 mi WSW 4.6 mph - N/A   Clear
3:54 PM 52.0 °F - 3.0 °F 14% 30.23 in 10.0 mi WNW 8.1 mph - N/A   Clear
4:54 PM 50.0 °F - 3.0 °F 15% 30.26 in 10.0 mi NNW 5.8 mph - N/A   Clear
5:54 PM 37.0 °F - 16.0 °F 42% 30.31 in 10.0 mi Calm Calm - N/A   Clear
6:54 PM 28.0 °F - 19.0 °F 69% 30.37 in 10.0 mi Calm Calm - N/A   Clear
7:54 PM 27.0 °F - 18.0 °F 69% 30.40 in 10.0 mi Calm Calm - N/A   Clear
8:54 PM 25.0 °F - 19.0 °F 78% 30.40 in 10.0 mi Calm Calm - N/A   Clear
9:54 PM 24.1 °F 19.7 °F 18.0 °F 77% 30.36 in 10.0 mi NNE 3.5 mph - N/A   Clear
10:54 PM 24.1 °F 18.2 °F 18.0 °F 77% 30.34 in 10.0 mi ENE 4.6 mph - N/A   Clear
11:54 PM 23.0 °F - 17.1 °F 78% 30.34 in 10.0 mi Calm Calm - N/A   Clear